START_TIME,STEP,MOV.,H8,t_acc.,H43,t_acc.,M25,t_acc.,H9,t_acc.
1979-07-07 06:00:30.130 ,0,1,0.,12.0,0.,12.0,0.,12.0,0.,12.0
1979-07-07 06:00:42.130 ,0,1,1.,12.0,0.,12.0,0.,12.0,0.,12.0
1979-07-07 06:00:54.130 ,4,1,0.,12.0,0.,12.0,0.,12.0,0.,12.0
1979-07-07 06:01:06.130 ,4,1,0.,12.0,0.,12.0,0.,12.0,0.,12.0
1979-07-07 06:01:18.130 ,7,1,0.,12.0,0.,12.0,0.,12.0,0.,12.0
1979-07-07 06:01:30.130 ,7,1,1.,12.0,0.,12.0,0.,12.0,0.,12.0
1979-07-07 06:01:42.130 ,3,1,0.,12.0,0.,12.0,0.,12.0,0.,12.0
1979-07-07 06:01:54.130 ,3,1,0.,12.0,0.,12.0,0.,12.0,0.,12.0
1979-07-07 06:02:06.130 ,0,1,0.,12.0,0.,12.0,0.,12.0,0.,12.0
1979-07-07 06:02:18.130 ,0,1,0.,12.0,0.,12.0,0.,12.0,0.,12.0
1979-07-07 06:02:30.130 ,4,1,0.,12.0,0.,12.0,0.,12.0,0.,12.0
1979-07-07 06:02:42.130 ,4,1,2.,12.0,0.,12.0,0.,12.0,0.,12.0
1979-07-07 06:02:54.130 ,7,1,1.,12.0,0.,12.0,0.,12.0,0.,12.0
1979-07-07 06:03:06.130 ,7,1,0.,12.0,0.,12.0,0.,12.0,0.,12.0
1979-07-07 06:03:18.130 ,3,1,0.,12.0,0.,12.0,0.,12.0,0.,12.0
1979-07-07 06:03:30.130 ,3,1,3.,12.0,0.,12.0,0.,12.0,0.,12.0
1979-07-07 06:03:42.130 ,0,1,0.,12.0,0.,12.0,0.,12.0,0.,12.0
1979-07-07 06:03:54.130 ,0,1,1.,12.0,0.,12.0,0.,12.0,0.,12.0
1979-07-07 06:04:06.130 ,4,1,0.,12.0,0.,12.0,0.,12.0,0.,12.0
1979-07-07 06:04:18.130 ,4,1,0.,12.0,0.,12.0,0.,12.0,0.,12.0
1979-07-07 06:04:30.130 ,7,1,0.,12.0,0.,12.0,0.,12.0,0.,12.0
1979-07-07 06:04:42.130 ,7,1,0.,12.0,0.,12.0,0.,12.0,0.,12.0
1979-07-07 06:04:54.130 ,3,1,0.,12.0,0.,12.0,0.,12.0,0.,12.0
1979-07-07 06:05:06.130 ,3,1,0.,12.0,0.,12.0,0.,12.0,0.,12.0
1979-07-07 06:05:18.130 ,0,1,0.,12.0,0.,12.0,0.,12.0,0.,12.0
1979-07-07 06:05:30.130 ,0,1,0.,12.0,0.,12.0,0.,12.0,0.,12.0
1979-07-07 06:05:42.130 ,0,0,0.,12.0,0.,12.0,0.,12.0,0.,12.0
1979-07-07 06:05:54.130 ,0,0,0.,12.0,0.,12.0,0.,12.0,0.,12.0
1979-07-07 06:06:06.130 ,0,0,0.,12.0,0.,12.0,0.,12.0,0.,12.0
1979-07-07 06:06:18.130 ,0,0,0.,12.0,0.,12.0,0.,12.0,0.,12.0
1979-07-07 06:06:30.130 ,5,0,0.,12.0,0.,12.0,0.,12.0,0.,12.0
1979-07-07 06:06:42.130 ,5,0,0.,12.0,0.,12.0,0.,12.0,0.,12.0
1979-07-07 06:06:54.130 ,5,0,0.,12.0,0.,12.0,0.,12.0,0.,12.0
1979-07-07 06:07:06.130 ,5,0,2.,12.0,0.,12.0,0.,12.0,0.,12.0
1979-07-07 06:07:18.130 ,4,0,0.,12.0,0.,12.0,0.,12.0,0.,12.0
1979-07-07 06:07:30.130 ,4,0,1.,12.0,0.,12.0,0.,12.0,0.,12.0
1979-07-07 06:07:42.130 ,4,0,0.,12.0,0.,12.0,0.,12.0,0.,12.0
1979-07-07 06:07:54.130 ,4,0,1.,12.0,0.,12.0,0.,12.0,0.,12.0
1979-07-07 06:08:06.130 ,3,0,0.,12.0,0.,12.0,0.,12.0,0.,12.0
1979-07-07 06:08:18.130 ,3,0,0.,12.0,0.,12.0,0.,12.0,0.,12.0
1979-07-07 06:08:30.130 ,3,0,0.,12.0,0.,12.0,0.,12.0,0.,12.0
1979-07-07 06:08:42.130 ,3,0,0.,12.0,0.,12.0,0.,12.0,0.,12.0
1979-07-07 06:08:54.130 ,2,0,0.,12.0,0.,12.0,0.,12.0,0.,12.0
1979-07-07 06:09:06.130 ,2,0,0.,12.0,0.,12.0,0.,12.0,0.,12.0
1979-07-07 06:09:18.130 ,2,0,0.,12.0,0.,12.0,0.,12.0,0.,12.0
1979-07-07 06:09:30.130 ,2,0,1.,12.0,0.,12.0,0.,12.0,0.,12.0
1979-07-07 06:09:42.130 ,1,0,0.,12.0,0.,12.0,0.,12.0,0.,12.0
1979-07-07 06:09:54.130 ,1,0,0.,12.0,0.,12.0,0.,12.0,0.,12.0
1979-07-07 06:10:06.130 ,1,0,1.,12.0,0.,12.0,0.,12.0,0.,12.0
1979-07-07 06:10:18.130 ,1,0,0.,12.0,0.,12.0,0.,12.0,0.,12.0
1979-07-07 06:10:30.130 ,0,0,0.,12.0,0.,12.0,0.,12.0,0.,12.0
1979-07-07 06:10:42.130 ,0,0,0.,12.0,0.,12.0,0.,12.0,0.,12.0
1979-07-07 06:10:54.130 ,0,0,0.,12.0,0.,12.0,0.,12.0,0.,12.0
1979-07-07 06:11:06.130 ,0,0,0.,12.0,1.,12.0,0.,12.0,0.,12.0
1979-07-07 06:11:18.130 ,0,0,0.,12.0,0.,12.0,0.,12.0,0.,12.0
1979-07-07 06:11:30.130 ,0,0,0.,12.0,0.,12.0,0.,12.0,0.,12.0
1979-07-07 06:11:42.130 ,0,0,0.,12.0,0.,12.0,0.,12.0,0.,12.0
1979-07-07 06:11:54.130 ,0,0,0.,12.0,0.,12.0,0.,12.0,0.,12.0
1979-07-07 06:12:06.130 ,1,0,1.,12.0,0.,12.0,0.,12.0,0.,12.0
1979-07-07 06:12:18.130 ,1,0,0.,12.0,0.,12.0,0.,12.0,0.,12.0
1979-07-07 06:12:30.130 ,1,0,0.,12.0,0.,12.0,0.,12.0,0.,12.0
1979-07-07 06:12:42.130 ,1,0,0.,12.0,0.,12.0,0.,12.0,0.,12.0
1979-07-07 06:12:54.130 ,2,0,0.,12.0,0.,12.0,0.,12.0,0.,12.0
1979-07-07 06:13:06.130 ,2,0,0.,12.0,0.,12.0,0.,12.0,0.,12.0
1979-07-07 06:13:18.130 ,2,0,0.,12.0,0.,12.0,0.,12.0,0.,12.0
1979-07-07 06:13:30.130 ,2,0,0.,12.0,0.,12.0,0.,12.0,0.,12.0
1979-07-07 06:13:42.130 ,3,0,1.,12.0,0.,12.0,0.,12.0,0.,12.0
1979-07-07 06:13:54.130 ,3,0,1.,12.0,0.,12.0,0.,12.0,0.,12.0
1979-07-07 06:14:06.130 ,3,0,0.,12.0,0.,12.0,0.,12.0,0.,12.0
1979-07-07 06:14:18.130 ,3,0,1.,12.0,0.,12.0,0.,12.0,0.,12.0
1979-07-07 06:14:30.130 ,4,0,0.,12.0,0.,12.0,0.,12.0,0.,12.0
1979-07-07 06:14:42.130 ,4,0,0.,12.0,0.,12.0,0.,12.0,0.,12.0
1979-07-07 06:14:54.130 ,4,0,1.,12.0,0.,12.0,0.,12.0,0.,12.0
1979-07-07 06:15:06.130 ,4,0,0.,12.0,0.,12.0,0.,12.0,0.,12.0
1979-07-07 06:15:18.130 ,5,0,0.,12.0,0.,12.0,0.,12.0,0.,12.0
1979-07-07 06:15:30.130 ,5,0,0.,12.0,0.,12.0,0.,12.0,0.,12.0
1979-07-07 06:15:42.130 ,5,0,0.,12.0,0.,12.0,0.,12.0,0.,12.0
1979-07-07 06:15:54.130 ,5,0,1.,12.0,0.,12.0,0.,12.0,0.,12.0
1979-07-07 06:16:06.130 ,6,0,3.,12.0,0.,12.0,0.,12.0,0.,12.0
1979-07-07 06:16:18.130 ,6,0,1.,12.0,0.,12.0,0.,12.0,0.,12.0
1979-07-07 06:16:30.130 ,6,0,0.,12.0,0.,12.0,0.,12.0,0.,12.0
1979-07-07 06:16:42.130 ,6,0,0.,12.0,0.,12.0,0.,12.0,0.,12.0
1979-07-07 06:16:54.130 ,7,0,0.,12.0,0.,12.0,0.,12.0,0.,12.0
1979-07-07 06:17:06.130 ,7,0,0.,12.0,0.,12.0,0.,12.0,0.,12.0
1979-07-07 06:17:18.130 ,7,0,0.,12.0,0.,12.0,0.,12.0,0.,12.0
1979-07-07 06:17:30.130 ,7,0,0.,12.0,0.,12.0,0.,12.0,0.,12.0
1979-07-07 06:17:42.130 ,7,0,0.,12.0,0.,12.0,0.,12.0,0.,12.0
1979-07-07 06:17:54.130 ,7,0,0.,12.0,0.,12.0,0.,12.0,0.,12.0
1979-07-07 06:18:06.130 ,7,0,0.,12.0,1.,12.0,0.,12.0,0.,12.0
1979-07-07 06:18:18.130 ,7,0,0.,12.0,0.,12.0,0.,12.0,0.,12.0
1979-07-07 06:18:30.130 ,6,0,0.,12.0,0.,12.0,0.,12.0,0.,12.0
1979-07-07 06:18:42.130 ,6,0,0.,12.0,0.,12.0,0.,12.0,0.,12.0
1979-07-07 06:18:54.130 ,6,0,1.,12.0,0.,12.0,0.,12.0,0.,12.0
1979-07-07 06:19:06.130 ,6,0,0.,12.0,0.,12.0,0.,12.0,0.,12.0
1979-07-07 06:19:18.130 ,5,0,0.,12.0,0.,12.0,0.,12.0,0.,12.0
1979-07-07 06:19:30.130 ,5,0,1.,12.0,0.,12.0,0.,12.0,0.,12.0
1979-07-07 06:19:42.130 ,5,0,1.,12.0,0.,12.0,0.,12.0,0.,12.0
1979-07-07 06:19:54.130 ,5,0,0.,12.0,0.,12.0,0.,12.0,0.,12.0
1979-07-07 06:20:06.130 ,4,0,2.,12.0,0.,12.0,0.,12.0,0.,12.0
1979-07-07 06:20:18.130 ,4,0,1.,12.0,0.,12.0,0.,12.0,0.,12.0
1979-07-07 06:20:30.130 ,4,0,0.,12.0,0.,12.0,0.,12.0,0.,12.0
1979-07-07 06:20:42.130 ,4,0,0.,12.0,0.,12.0,0.,12.0,0.,12.0
1979-07-07 06:20:54.130 ,3,0,0.,12.0,0.,12.0,0.,12.0,0.,12.0
1979-07-07 06:21:06.130 ,3,0,0.,12.0,0.,12.0,0.,12.0,0.,12.0
1979-07-07 06:21:18.130 ,3,0,0.,12.0,0.,12.0,0.,12.0,0.,12.0
1979-07-07 06:21:30.130 ,3,0,0.,12.0,0.,12.0,0.,12.0,0.,12.0
1979-07-07 06:21:42.130 ,2,0,0.,12.0,0.,12.0,0.,12.0,0.,12.0
1979-07-07 06:21:54.130 ,2,0,0.,12.0,0.,12.0,0.,12.0,0.,12.0
1979-07-07 06:22:06.130 ,2,0,0.,12.0,0.,12.0,0.,12.0,0.,12.0
1979-07-07 06:22:18.130 ,2,0,0.,12.0,0.,12.0,0.,12.0,0.,12.0
1979-07-07 06:22:30.130 ,1,0,0.,12.0,0.,12.0,0.,12.0,0.,12.0
1979-07-07 06:22:42.130 ,1,0,0.,12.0,0.,12.0,0.,12.0,0.,12.0
1979-07-07 06:22:54.130 ,1,0,0.,12.0,0.,12.0,0.,12.0,0.,12.0
1979-07-07 06:23:06.130 ,1,0,0.,12.0,0.,12.0,0.,12.0,0.,12.0
1979-07-07 06:23:18.130 ,0,0,0.,12.0,0.,12.0,0.,12.0,0.,12.0
1979-07-07 06:23:30.130 ,0,0,0.,12.0,0.,12.0,0.,12.0,0.,12.0
1979-07-07 06:23:42.130 ,0,0,0.,12.0,0.,12.0,0.,12.0,0.,12.0
1979-07-07 06:23:54.130 ,0,0,0.,12.0,0.,12.0,0.,12.0,0.,12.0
1979-07-07 06:24:06.130 ,0,0,0.,12.0,0.,12.0,0.,12.0,0.,12.0
1979-07-07 06:24:18.130 ,0,0,1.,12.0,0.,12.0,0.,12.0,0.,12.0
1979-07-07 06:24:30.130 ,0,0,0.,12.0,0.,12.0,0.,12.0,0.,12.0
1979-07-07 06:24:42.130 ,0,0,0.,12.0,0.,12.0,0.,12.0,0.,12.0
1979-07-07 06:24:54.130 ,1,0,1.,12.0,0.,12.0,0.,12.0,0.,12.0
1979-07-07 06:25:06.130 ,1,0,0.,12.0,0.,12.0,0.,12.0,0.,12.0
1979-07-07 06:25:18.130 ,1,0,0.,12.0,0.,12.0,0.,12.0,0.,12.0
1979-07-07 06:25:30.130 ,1,0,0.,12.0,0.,12.0,0.,12.0,0.,12.0
1979-07-07 06:25:42.130 ,2,0,0.,12.0,0.,12.0,0.,12.0,0.,12.0
1979-07-07 06:25:54.130 ,2,0,0.,12.0,0.,12.0,0.,12.0,0.,12.0
1979-07-07 06:26:06.130 ,2,0,0.,12.0,0.,12.0,0.,12.0,0.,12.0
1979-07-07 06:26:18.130 ,2,0,0.,12.0,0.,12.0,0.,12.0,0.,12.0
1979-07-07 06:26:30.130 ,3,0,0.,12.0,0.,12.0,0.,12.0,0.,12.0
1979-07-07 06:26:42.130 ,3,0,0.,12.0,0.,12.0,0.,12.0,0.,12.0
1979-07-07 06:26:54.130 ,3,0,0.,12.0,0.,12.0,0.,12.0,0.,12.0
1979-07-07 06:27:06.130 ,3,0,0.,12.0,0.,12.0,0.,12.0,0.,12.0
1979-07-07 06:27:18.130 ,4,0,1.,12.0,0.,12.0,0.,12.0,0.,12.0
1979-07-07 06:27:30.130 ,4,0,0.,12.0,0.,12.0,0.,12.0,0.,12.0
1979-07-07 06:27:42.130 ,4,0,0.,12.0,0.,12.0,0.,12.0,0.,12.0
1979-07-07 06:27:54.130 ,4,0,0.,12.0,0.,12.0,0.,12.0,0.,12.0
1979-07-07 06:28:06.130 ,5,0,0.,12.0,0.,12.0,0.,12.0,0.,12.0
1979-07-07 06:28:18.130 ,5,0,0.,12.0,0.,12.0,0.,12.0,0.,12.0
1979-07-07 06:28:30.130 ,5,0,0.,12.0,0.,12.0,0.,12.0,0.,12.0
1979-07-07 06:28:42.130 ,5,0,0.,12.0,0.,12.0,0.,12.0,0.,12.0
1979-07-07 06:28:54.130 ,6,0,0.,12.0,0.,12.0,0.,12.0,0.,12.0
1979-07-07 06:29:06.130 ,6,0,2.,12.0,0.,12.0,0.,12.0,0.,12.0
1979-07-07 06:29:18.130 ,6,0,0.,12.0,0.,12.0,0.,12.0,0.,12.0
1979-07-07 06:29:30.130 ,6,0,0.,12.0,0.,12.0,0.,12.0,0.,12.0
1979-07-07 06:29:42.130 ,7,0,1.,12.0,0.,12.0,0.,12.0,0.,12.0
1979-07-07 06:29:54.130 ,7,0,0.,12.0,0.,12.0,0.,12.0,0.,12.0
1979-07-07 06:30:06.130 ,7,0,0.,12.0,0.,12.0,0.,12.0,0.,12.0
1979-07-07 06:30:18.130 ,7,0,0.,12.0,0.,12.0,0.,12.0,0.,12.0
1979-07-07 06:30:30.130 ,7,0,0.,12.0,0.,12.0,0.,12.0,0.,12.0
1979-07-07 06:30:42.130 ,7,0,0.,12.0,0.,12.0,0.,12.0,0.,12.0
1979-07-07 06:30:54.130 ,7,0,0.,12.0,0.,12.0,0.,12.0,0.,12.0
1979-07-07 06:31:06.130 ,7,0,0.,12.0,0.,12.0,0.,12.0,0.,12.0
1979-07-07 06:31:18.130 ,6,0,0.,12.0,1.,12.0,0.,12.0,0.,12.0
1979-07-07 06:31:30.130 ,6,0,0.,12.0,0.,12.0,0.,12.0,0.,12.0
1979-07-07 06:31:42.130 ,6,0,0.,12.0,0.,12.0,0.,12.0,0.,12.0
1979-07-07 06:31:54.130 ,6,0,0.,12.0,0.,12.0,0.,12.0,0.,12.0
1979-07-07 06:32:06.130 ,5,0,0.,12.0,0.,12.0,0.,12.0,0.,12.0
1979-07-07 06:32:18.130 ,5,0,1.,12.0,0.,12.0,0.,12.0,0.,12.0
1979-07-07 06:32:30.130 ,5,0,0.,12.0,0.,12.0,0.,12.0,0.,12.0
1979-07-07 06:32:42.130 ,5,0,0.,12.0,0.,12.0,0.,12.0,0.,12.0
1979-07-07 06:32:54.130 ,4,0,1.,12.0,0.,12.0,0.,12.0,0.,12.0
1979-07-07 06:33:06.130 ,4,0,0.,12.0,1.,12.0,0.,12.0,0.,12.0
1979-07-07 06:33:18.130 ,4,0,0.,12.0,0.,12.0,0.,12.0,0.,12.0
1979-07-07 06:33:30.130 ,4,0,0.,12.0,0.,12.0,0.,12.0,0.,12.0
1979-07-07 06:33:42.130 ,3,0,0.,12.0,0.,12.0,0.,12.0,0.,12.0
1979-07-07 06:33:54.130 ,3,0,0.,12.0,0.,12.0,0.,12.0,0.,12.0
1979-07-07 06:34:06.130 ,3,0,0.,12.0,0.,12.0,0.,12.0,0.,12.0
1979-07-07 06:34:18.130 ,3,0,0.,12.0,0.,12.0,0.,12.0,0.,12.0
1979-07-07 06:34:30.130 ,2,0,0.,12.0,0.,12.0,0.,12.0,0.,12.0
1979-07-07 06:34:42.130 ,2,0,0.,12.0,0.,12.0,0.,12.0,0.,12.0
1979-07-07 06:34:54.130 ,2,0,0.,12.0,0.,12.0,0.,12.0,0.,12.0
1979-07-07 06:35:06.130 ,2,0,0.,12.0,0.,12.0,0.,12.0,0.,12.0
1979-07-07 06:35:18.130 ,1,0,0.,12.0,0.,12.0,0.,12.0,0.,12.0
1979-07-07 06:35:30.130 ,1,0,0.,12.0,0.,12.0,0.,12.0,0.,12.0
1979-07-07 06:35:42.130 ,1,0,0.,12.0,0.,12.0,0.,12.0,0.,12.0
1979-07-07 06:35:54.130 ,1,0,0.,12.0,0.,12.0,0.,12.0,0.,12.0
1979-07-07 06:36:06.130 ,0,0,0.,12.0,0.,12.0,0.,12.0,0.,12.0
1979-07-07 06:36:18.130 ,0,0,0.,12.0,0.,12.0,0.,12.0,0.,12.0
1979-07-07 06:36:30.130 ,0,0,0.,12.0,0.,12.0,0.,12.0,0.,12.0
1979-07-07 06:36:42.130 ,0,0,0.,12.0,0.,12.0,0.,12.0,0.,12.0
1979-07-07 06:36:54.130 ,0,0,0.,12.0,0.,12.0,0.,12.0,0.,12.0
1979-07-07 06:37:06.130 ,0,0,0.,12.0,0.,12.0,0.,12.0,0.,12.0
1979-07-07 06:37:18.130 ,0,0,0.,12.0,0.,12.0,0.,12.0,0.,12.0
1979-07-07 06:37:30.130 ,0,0,1.,12.0,0.,12.0,0.,12.0,0.,12.0
1979-07-07 06:37:42.130 ,1,0,0.,12.0,0.,12.0,0.,12.0,0.,12.0
1979-07-07 06:37:54.130 ,1,0,0.,12.0,0.,12.0,0.,12.0,0.,12.0
1979-07-07 06:38:06.130 ,1,0,0.,12.0,0.,12.0,0.,12.0,0.,12.0
1979-07-07 06:38:18.130 ,1,0,1.,12.0,0.,12.0,0.,12.0,0.,12.0
1979-07-07 06:38:30.130 ,2,0,0.,12.0,0.,12.0,0.,12.0,0.,12.0
1979-07-07 06:38:42.130 ,2,0,0.,12.0,0.,12.0,0.,12.0,0.,12.0
1979-07-07 06:38:54.130 ,2,0,0.,12.0,0.,12.0,0.,12.0,0.,12.0
1979-07-07 06:39:06.130 ,2,0,0.,12.0,0.,12.0,0.,12.0,0.,12.0
1979-07-07 06:39:18.130 ,3,0,0.,12.0,0.,12.0,0.,12.0,0.,12.0
1979-07-07 06:39:30.130 ,3,0,0.,12.0,0.,12.0,0.,12.0,0.,12.0
1979-07-07 06:39:42.130 ,3,0,0.,12.0,0.,12.0,0.,12.0,0.,12.0
1979-07-07 06:39:54.130 ,3,0,0.,12.0,0.,12.0,0.,12.0,0.,12.0
1979-07-07 06:40:06.130 ,4,0,0.,12.0,0.,12.0,0.,12.0,0.,12.0
1979-07-07 06:40:18.130 ,4,0,0.,12.0,0.,12.0,0.,12.0,0.,12.0
1979-07-07 06:40:30.130 ,4,0,1.,12.0,0.,12.0,0.,12.0,0.,12.0
1979-07-07 06:40:42.130 ,4,0,0.,12.0,0.,12.0,0.,12.0,0.,12.0
1979-07-07 06:40:54.130 ,5,0,1.,12.0,0.,12.0,0.,12.0,0.,12.0
1979-07-07 06:41:06.130 ,5,0,0.,12.0,0.,12.0,0.,12.0,0.,12.0
1979-07-07 06:41:18.130 ,5,0,1.,12.0,0.,12.0,0.,12.0,0.,12.0
1979-07-07 06:41:30.130 ,5,0,0.,12.0,0.,12.0,0.,12.0,0.,12.0
1979-07-07 06:41:42.130 ,6,0,0.,12.0,0.,12.0,0.,12.0,0.,12.0
1979-07-07 06:41:54.130 ,6,0,0.,12.0,0.,12.0,0.,12.0,0.,12.0
1979-07-07 06:42:06.130 ,6,0,0.,12.0,0.,12.0,0.,12.0,0.,12.0
1979-07-07 06:42:18.130 ,6,0,0.,12.0,0.,12.0,0.,12.0,0.,12.0
1979-07-07 06:42:30.130 ,7,0,1.,12.0,0.,12.0,0.,12.0,0.,12.0
1979-07-07 06:42:42.130 ,7,0,0.,12.0,0.,12.0,0.,12.0,0.,12.0
1979-07-07 06:42:54.130 ,7,0,0.,12.0,0.,12.0,0.,12.0,0.,12.0
1979-07-07 06:43:06.130 ,7,0,0.,12.0,0.,12.0,0.,12.0,0.,12.0
1979-07-07 06:43:18.130 ,3,1,0.,12.0,0.,12.0,0.,12.0,0.,12.0
1979-07-07 06:43:30.130 ,3,1,0.,12.0,0.,12.0,0.,12.0,0.,12.0
1979-07-07 06:43:42.130 ,0,1,0.,12.0,0.,12.0,0.,12.0,0.,12.0
1979-07-07 06:43:54.130 ,0,1,0.,12.0,0.,12.0,0.,12.0,0.,12.0
1979-07-07 06:44:06.130 ,4,1,0.,12.0,0.,12.0,0.,12.0,0.,12.0
1979-07-07 06:44:18.130 ,4,1,0.,12.0,0.,12.0,0.,12.0,0.,12.0
1979-07-07 06:44:30.130 ,7,1,1.,12.0,0.,12.0,0.,12.0,0.,12.0
1979-07-07 06:44:42.130 ,7,1,0.,12.0,0.,12.0,0.,12.0,0.,12.0
1979-07-07 06:44:54.130 ,3,1,0.,12.0,0.,12.0,0.,12.0,0.,12.0
1979-07-07 06:45:06.130 ,3,1,0.,12.0,0.,12.0,0.,12.0,0.,12.0
1979-07-07 06:45:18.130 ,0,1,0.,12.0,0.,12.0,0.,12.0,0.,12.0
1979-07-07 06:45:30.130 ,0,1,0.,12.0,0.,12.0,0.,12.0,0.,12.0
1979-07-07 06:45:42.130 ,4,1,0.,12.0,0.,12.0,0.,12.0,0.,12.0
1979-07-07 06:45:54.130 ,4,1,0.,12.0,0.,12.0,0.,12.0,0.,12.0
1979-07-07 06:46:06.130 ,7,1,0.,12.0,0.,12.0,0.,12.0,0.,12.0
1979-07-07 06:46:18.130 ,7,1,0.,12.0,0.,12.0,0.,12.0,0.,12.0
1979-07-07 06:46:30.130 ,3,1,0.,12.0,0.,12.0,0.,12.0,0.,12.0
1979-07-07 06:46:42.130 ,3,1,0.,12.0,0.,12.0,0.,12.0,0.,12.0
1979-07-07 06:46:54.130 ,0,1,0.,12.0,0.,12.0,0.,12.0,0.,12.0
1979-07-07 06:47:06.130 ,0,1,0.,12.0,0.,12.0,0.,12.0,0.,12.0
1979-07-07 06:47:18.130 ,4,1,0.,12.0,0.,12.0,0.,12.0,0.,12.0
1979-07-07 06:47:30.130 ,4,1,0.,12.0,0.,12.0,0.,12.0,0.,12.0
1979-07-07 06:47:42.130 ,7,1,0.,12.0,0.,12.0,0.,12.0,0.,12.0
1979-07-07 06:47:54.130 ,7,1,0.,12.0,0.,12.0,0.,12.0,0.,12.0
1979-07-07 06:48:06.130 ,3,1,0.,12.0,0.,12.0,0.,12.0,0.,12.0
1979-07-07 06:48:18.130 ,3,1,0.,12.0,1.,12.0,0.,12.0,0.,12.0
1979-07-07 06:48:30.130 ,0,1,0.,12.0,0.,12.0,0.,12.0,0.,12.0
1979-07-07 06:48:42.130 ,0,1,0.,12.0,0.,12.0,0.,12.0,0.,12.0
1979-07-07 06:48:54.130 ,4,1,0.,12.0,0.,12.0,0.,12.0,0.,12.0
1979-07-07 06:49:06.130 ,4,1,0.,12.0,0.,12.0,0.,12.0,0.,12.0
1979-07-07 06:49:18.130 ,7,1,1.,12.0,0.,12.0,0.,12.0,0.,12.0
1979-07-07 06:49:30.130 ,7,1,0.,12.0,0.,12.0,0.,12.0,0.,12.0
1979-07-07 06:49:42.130 ,3,1,0.,12.0,0.,12.0,0.,12.0,0.,12.0
1979-07-07 06:49:54.130 ,3,1,0.,12.0,0.,12.0,0.,12.0,0.,12.0
1979-07-07 06:50:06.130 ,0,1,0.,12.0,0.,12.0,0.,12.0,0.,12.0
1979-07-07 06:50:18.130 ,0,1,0.,12.0,0.,12.0,0.,12.0,0.,12.0
1979-07-07 06:50:30.130 ,4,1,0.,12.0,0.,12.0,0.,12.0,0.,12.0
1979-07-07 06:50:42.130 ,4,1,0.,12.0,0.,12.0,0.,12.0,0.,12.0
1979-07-07 06:50:54.130 ,7,1,0.,12.0,0.,12.0,0.,12.0,0.,12.0
1979-07-07 06:51:06.130 ,7,1,0.,12.0,0.,12.0,0.,12.0,0.,12.0
1979-07-07 06:51:18.130 ,3,1,0.,12.0,0.,12.0,0.,12.0,0.,12.0
1979-07-07 06:51:30.130 ,3,1,0.,12.0,0.,12.0,0.,12.0,0.,12.0
1979-07-07 06:51:42.130 ,0,1,0.,12.0,0.,12.0,0.,12.0,0.,12.0
1979-07-07 06:51:54.130 ,0,1,0.,12.0,0.,12.0,0.,12.0,0.,12.0
1979-07-07 06:52:06.130 ,4,1,0.,12.0,0.,12.0,0.,12.0,0.,12.0
1979-07-07 06:52:18.130 ,4,1,0.,12.0,0.,12.0,0.,12.0,0.,12.0
1979-07-07 06:52:30.130 ,7,1,0.,12.0,0.,12.0,0.,12.0,0.,12.0
1979-07-07 06:52:42.130 ,7,1,0.,12.0,0.,12.0,0.,12.0,0.,12.0
1979-07-07 06:52:54.130 ,3,1,1.,12.0,0.,12.0,0.,12.0,0.,12.0
1979-07-07 06:53:06.130 ,3,1,0.,12.0,0.,12.0,0.,12.0,0.,12.0
1979-07-07 06:53:18.130 ,0,1,0.,12.0,0.,12.0,0.,12.0,0.,12.0
1979-07-07 06:53:30.130 ,0,1,0.,12.0,0.,12.0,0.,12.0,0.,12.0
1979-07-07 06:53:42.130 ,0,0,0.,12.0,0.,12.0,0.,12.0,0.,12.0
1979-07-07 06:53:54.130 ,0,0,0.,12.0,0.,12.0,0.,12.0,0.,12.0
1979-07-07 06:54:06.130 ,0,0,0.,12.0,0.,12.0,0.,12.0,0.,12.0
1979-07-07 06:54:18.130 ,0,0,0.,12.0,0.,12.0,0.,12.0,0.,12.0
1979-07-07 06:54:30.130 ,5,0,0.,12.0,0.,12.0,0.,12.0,0.,12.0
1979-07-07 06:54:42.130 ,5,0,0.,12.0,0.,12.0,0.,12.0,0.,12.0
1979-07-07 06:54:54.130 ,5,0,0.,12.0,0.,12.0,0.,12.0,0.,12.0
1979-07-07 06:55:06.130 ,5,0,0.,12.0,0.,12.0,0.,12.0,0.,12.0
1979-07-07 06:55:18.130 ,4,0,0.,12.0,0.,12.0,0.,12.0,0.,12.0
1979-07-07 06:55:30.130 ,4,0,0.,12.0,0.,12.0,0.,12.0,0.,12.0
1979-07-07 06:55:42.130 ,4,0,0.,12.0,0.,12.0,0.,12.0,0.,12.0
1979-07-07 06:55:54.130 ,4,0,0.,12.0,0.,12.0,0.,12.0,0.,12.0
1979-07-07 06:56:06.130 ,3,0,0.,12.0,0.,12.0,0.,12.0,0.,12.0
1979-07-07 06:56:18.130 ,3,0,0.,12.0,0.,12.0,0.,12.0,0.,12.0
1979-07-07 06:56:30.130 ,3,0,0.,12.0,0.,12.0,0.,12.0,0.,12.0
1979-07-07 06:56:42.130 ,3,0,0.,12.0,0.,12.0,0.,12.0,0.,12.0
1979-07-07 06:56:54.130 ,2,0,0.,12.0,0.,12.0,0.,12.0,0.,12.0
1979-07-07 06:57:06.130 ,2,0,0.,12.0,0.,12.0,0.,12.0,0.,12.0
1979-07-07 06:57:18.130 ,2,0,0.,12.0,0.,12.0,0.,12.0,0.,12.0
1979-07-07 06:57:30.130 ,2,0,0.,12.0,0.,12.0,0.,12.0,0.,12.0
1979-07-07 06:57:42.130 ,1,0,0.,12.0,0.,12.0,0.,12.0,0.,12.0
1979-07-07 06:57:54.130 ,1,0,0.,12.0,0.,12.0,0.,12.0,0.,12.0
1979-07-07 06:58:06.130 ,1,0,0.,12.0,0.,12.0,0.,12.0,0.,12.0
1979-07-07 06:58:18.130 ,1,0,0.,12.0,0.,12.0,0.,12.0,0.,12.0
1979-07-07 06:58:30.130 ,0,0,0.,12.0,0.,12.0,0.,12.0,0.,12.0
1979-07-07 06:58:42.130 ,0,0,0.,12.0,0.,12.0,0.,12.0,0.,12.0
1979-07-07 06:58:54.130 ,0,0,0.,12.0,0.,12.0,0.,12.0,0.,12.0
1979-07-07 06:59:06.130 ,0,0,0.,12.0,0.,12.0,0.,12.0,0.,12.0
1979-07-07 06:59:18.130 ,0,0,0.,12.0,0.,12.0,0.,12.0,0.,12.0
1979-07-07 06:59:30.130 ,0,0,0.,12.0,0.,12.0,0.,12.0,0.,12.0
1979-07-07 06:59:42.130 ,0,0,0.,12.0,0.,12.0,0.,12.0,0.,12.0
1979-07-07 06:59:54.130 ,0,0,0.,12.0,0.,12.0,0.,12.0,0.,12.0
1979-07-07 07:00:06.130 ,1,0,0.,12.0,0.,12.0,0.,12.0,0.,12.0
1979-07-07 07:00:18.130 ,1,0,0.,12.0,0.,12.0,0.,12.0,0.,12.0
1979-07-07 07:00:30.130 ,1,0,0.,12.0,0.,12.0,0.,12.0,0.,12.0
1979-07-07 07:00:42.130 ,1,0,0.,12.0,0.,12.0,0.,12.0,0.,12.0
1979-07-07 07:00:54.130 ,2,0,0.,12.0,0.,12.0,0.,12.0,0.,12.0
1979-07-07 07:01:06.130 ,2,0,1.,12.0,0.,12.0,0.,12.0,0.,12.0
1979-07-07 07:01:18.130 ,2,0,0.,12.0,0.,12.0,0.,12.0,0.,12.0
1979-07-07 07:01:30.130 ,2,0,1.,12.0,0.,12.0,0.,12.0,0.,12.0
1979-07-07 07:01:42.130 ,3,0,0.,12.0,0.,12.0,0.,12.0,0.,12.0
1979-07-07 07:01:54.130 ,3,0,0.,12.0,0.,12.0,0.,12.0,0.,12.0
1979-07-07 07:02:06.130 ,3,0,0.,12.0,0.,12.0,0.,12.0,0.,12.0
1979-07-07 07:02:18.130 ,3,0,0.,12.0,0.,12.0,0.,12.0,0.,12.0
1979-07-07 07:02:30.130 ,4,0,0.,12.0,0.,12.0,0.,12.0,0.,12.0
1979-07-07 07:02:42.130 ,4,0,0.,12.0,0.,12.0,0.,12.0,0.,12.0
1979-07-07 07:02:54.130 ,4,0,0.,12.0,0.,12.0,0.,12.0,0.,12.0
1979-07-07 07:03:06.130 ,4,0,0.,12.0,0.,12.0,0.,12.0,0.,12.0
1979-07-07 07:03:18.130 ,5,0,0.,12.0,0.,12.0,0.,12.0,0.,12.0
1979-07-07 07:03:30.130 ,5,0,1.,12.0,0.,12.0,0.,12.0,0.,12.0
1979-07-07 07:03:42.130 ,5,0,0.,12.0,0.,12.0,0.,12.0,0.,12.0
1979-07-07 07:03:54.130 ,5,0,0.,12.0,0.,12.0,0.,12.0,0.,12.0
1979-07-07 07:04:06.130 ,6,0,0.,12.0,0.,12.0,0.,12.0,0.,12.0
1979-07-07 07:04:18.130 ,6,0,0.,12.0,0.,12.0,0.,12.0,0.,12.0
1979-07-07 07:04:30.130 ,6,0,0.,12.0,0.,12.0,0.,12.0,0.,12.0
1979-07-07 07:04:42.130 ,6,0,0.,12.0,1.,12.0,0.,12.0,0.,12.0
1979-07-07 07:04:54.130 ,7,0,1.,12.0,0.,12.0,0.,12.0,0.,12.0
1979-07-07 07:05:06.130 ,7,0,0.,12.0,0.,12.0,0.,12.0,0.,12.0
1979-07-07 07:05:18.130 ,7,0,0.,12.0,0.,12.0,0.,12.0,0.,12.0
1979-07-07 07:05:30.130 ,7,0,0.,12.0,0.,12.0,0.,12.0,0.,12.0
1979-07-07 07:05:42.130 ,7,0,0.,12.0,0.,12.0,0.,12.0,0.,12.0
1979-07-07 07:05:54.130 ,7,0,0.,12.0,0.,12.0,0.,12.0,0.,12.0
1979-07-07 07:06:06.130 ,7,0,0.,12.0,0.,12.0,0.,12.0,0.,12.0
1979-07-07 07:06:18.130 ,7,0,0.,12.0,0.,12.0,0.,12.0,0.,12.0
1979-07-07 07:06:30.130 ,6,0,0.,12.0,0.,12.0,0.,12.0,0.,12.0
1979-07-07 07:06:42.130 ,6,0,0.,12.0,0.,12.0,0.,12.0,0.,12.0
1979-07-07 07:06:54.130 ,6,0,0.,12.0,0.,12.0,0.,12.0,0.,12.0
1979-07-07 07:07:06.130 ,6,0,0.,12.0,0.,12.0,0.,12.0,0.,12.0
1979-07-07 07:07:18.130 ,5,0,0.,12.0,0.,12.0,0.,12.0,0.,12.0
1979-07-07 07:07:30.130 ,5,0,0.,12.0,0.,12.0,0.,12.0,0.,12.0
1979-07-07 07:07:42.130 ,5,0,0.,12.0,0.,12.0,0.,12.0,0.,12.0
1979-07-07 07:07:54.130 ,5,0,1.,12.0,0.,12.0,0.,12.0,0.,12.0
1979-07-07 07:08:06.130 ,4,0,0.,12.0,0.,12.0,0.,12.0,0.,12.0
1979-07-07 07:08:18.130 ,4,0,0.,12.0,0.,12.0,0.,12.0,0.,12.0
1979-07-07 07:08:30.130 ,4,0,0.,12.0,0.,12.0,0.,12.0,0.,12.0
1979-07-07 07:08:42.130 ,4,0,0.,12.0,0.,12.0,0.,12.0,0.,12.0
1979-07-07 07:16:54.130 ,0,0,0.,12.0,0.,12.0,0.,12.0,0.,12.0
1979-07-07 07:17:06.130 ,0,0,0.,12.0,0.,12.0,0.,12.0,0.,12.0
1979-07-07 07:17:18.130 ,0,0,0.,12.0,0.,12.0,0.,12.0,0.,12.0
1979-07-07 07:17:30.130 ,0,0,0.,12.0,0.,12.0,0.,12.0,0.,12.0
1979-07-07 07:17:42.130 ,7,0,0.,12.0,0.,12.0,0.,12.0,0.,12.0
1979-07-07 07:17:54.130 ,7,0,0.,12.0,0.,12.0,0.,12.0,0.,12.0
1979-07-07 07:18:06.130 ,7,0,0.,12.0,0.,12.0,0.,12.0,0.,12.0
1979-07-07 07:18:18.130 ,7,0,0.,12.0,0.,12.0,0.,12.0,0.,12.0
1979-07-07 07:18:30.130 ,7,0,0.,12.0,0.,12.0,0.,12.0,0.,12.0
1979-07-07 07:18:42.130 ,7,0,0.,12.0,0.,12.0,0.,12.0,0.,12.0
1979-07-07 07:18:54.130 ,7,0,0.,12.0,0.,12.0,0.,12.0,0.,12.0
1979-07-07 07:19:06.130 ,7,0,0.,12.0,0.,12.0,0.,12.0,0.,12.0
1979-07-07 07:19:18.130 ,6,0,0.,12.0,0.,12.0,0.,12.0,0.,12.0
1979-07-07 07:19:30.130 ,6,0,0.,12.0,0.,12.0,0.,12.0,0.,12.0
1979-07-07 07:19:42.130 ,6,0,1.,12.0,0.,12.0,0.,12.0,0.,12.0
1979-07-07 07:19:54.130 ,6,0,0.,12.0,0.,12.0,0.,12.0,0.,12.0
1979-07-07 07:20:06.130 ,5,0,2.,12.0,0.,12.0,0.,12.0,0.,12.0
1979-07-07 07:20:18.130 ,5,0,0.,12.0,0.,12.0,0.,12.0,0.,12.0
1979-07-07 07:20:30.130 ,5,0,0.,12.0,0.,12.0,0.,12.0,0.,12.0
1979-07-07 07:20:42.130 ,5,0,0.,12.0,0.,12.0,0.,12.0,0.,12.0
1979-07-07 07:20:54.130 ,4,0,0.,12.0,0.,12.0,0.,12.0,0.,12.0
1979-07-07 07:21:06.130 ,4,0,0.,12.0,0.,12.0,0.,12.0,0.,12.0
1979-07-07 07:21:18.130 ,4,0,0.,12.0,0.,12.0,0.,12.0,0.,12.0
1979-07-07 07:21:30.130 ,4,0,0.,12.0,0.,12.0,0.,12.0,0.,12.0
1979-07-07 07:21:42.130 ,3,0,0.,12.0,0.,12.0,0.,12.0,0.,12.0
1979-07-07 07:21:54.130 ,3,0,0.,12.0,0.,12.0,0.,12.0,0.,12.0
1979-07-07 07:22:06.130 ,3,0,0.,12.0,0.,12.0,0.,12.0,0.,12.0
1979-07-07 07:22:18.130 ,3,0,0.,12.0,0.,12.0,0.,12.0,0.,12.0
1979-07-07 07:22:30.130 ,2,0,0.,12.0,0.,12.0,0.,12.0,0.,12.0
1979-07-07 07:22:42.130 ,2,0,0.,12.0,0.,12.0,0.,12.0,0.,12.0
1979-07-07 07:22:54.130 ,2,0,0.,12.0,0.,12.0,0.,12.0,0.,12.0
1979-07-07 07:23:06.130 ,2,0,0.,12.0,0.,12.0,0.,12.0,0.,12.0
1979-07-07 07:23:18.130 ,1,0,0.,12.0,0.,12.0,0.,12.0,0.,12.0
1979-07-07 07:23:30.130 ,1,0,1.,12.0,0.,12.0,0.,12.0,0.,12.0
1979-07-07 07:23:42.130 ,1,0,0.,12.0,0.,12.0,0.,12.0,0.,12.0
1979-07-07 07:23:54.130 ,1,0,0.,12.0,0.,12.0,0.,12.0,0.,12.0
1979-07-07 07:24:06.130 ,0,0,0.,12.0,0.,12.0,0.,12.0,0.,12.0
1979-07-07 07:24:18.130 ,0,0,,0,,0,,0,,0
1979-07-07 07:24:30.130 ,0,0,,0,,0,,0,,0
1979-07-07 07:24:42.130 ,0,0,,0,,0,,0,,0
1979-07-07 07:24:52.930 ,0,0,,0,,0,,0,,0
1979-07-07 07:25:04.930 ,0,0,,0,,0,,0,,0
1979-07-07 07:25:38.530 ,0,0,,0,,0,,0,,0
1979-07-07 07:25:50.530 ,0,0,,0,,0,,0,,0
1979-07-07 07:25:43.930 ,0,0,,0,,0,,0,,0
1979-07-07 07:25:55.930 ,0,0,,0,,0,,0,,0
1979-07-07 07:26:06.130 ,0,0,,0,,0,,0,,0